STARLINK-2147, 47736

Orbit data source: Space-Track

STARLINK-2147, 47736 is a payload satellite owned by SpaceX/Seattle (US) in LEO that was launched on Thu, 04 Mar 2021 UTC via an FALCON 9 launch vehicle from the Air Force Eastern Test Range (AFETR). Payload-class satellites include a variety of spacecraft equipped with specific instruments for various scientific and technological missions. These include communications satellites like Starlink; space stations such as the ISS; scientific satellites like the Hubble; Earth observation satellites from companies like Planet Labs, Umbra, and HawkEye 360; GPS; miniature CubeSats for education and research; and military/defense satellites.

Loading next visibility...
Identifier
47736, 2021-017Q
Orbit
LEO
Country
Flag of USUS
Related business
Manufacturer
SpaceX/Seattle
Mission
Operational Commercial Communications
Bus & Motor
STARLINK, Unknown motor
Mass
260 kg wet, ~248 kg dry
Launch date (UTC)
2021-03-04 (5 years ago)
Launch vehicle
FALCON 9
Launch site
Air Force Eastern Test Range (AFETR)
Object type
Payload
Rocket body
Debris
Shape & HBR
Box + 1 Pan, 10.1 m
Radar Cross Section
13.562 m², Large (>1 m²)

Expand to show TLE details & history
Last TLE update: 13 hours ago

TLE from 13 hours ago
0 STARLINK-2147
1 47736U 21017Q   25346.99368792 -.00003823  00000-0 -23799-3 0  9992
2 47736  53.0536 230.8131 0001328  91.1908 268.9233 15.06382310264858
Epoch: 2025-12-12T23:50Z
TLE epoch observation values (Epoch: 2025-12-12T23:50:54.636Z)
Latitude
-0.00002°
Longitude
151.1581°
Altitude
548.162 km
Speed
7.589 km/s
True Right ascension
15h 23m 15s
True Declination
0° 00' 00"
Sunlit
Object was in daylight at epoch
Visualization orbit readout
Latitude
Unknown
Longitude
Unknown
Altitude
Unknown
Speed
Unknown
Apparent Right ascension
Unknown
Apparent Declination
Unknown
Sunlit
N/A
Visualization observer readout
Local Sidereal Time
11:02:11
Azimuth
Unknown
Elevation
Unknown
Doppler factor
Unknown
Orbital elements
Apogee altitude
548.456 km
Perigee altitude
546.617 km
Semi-major axis
6,925.674 km
Eccentricity
0.00013
Inclination
53.0536°
RAAN
230.8131°
Arg. of periapsis
91.1908°
True anomaly
268.90808°
Mean anomaly
268.9233°
Eccentric anomaly
268.91569°
Mean motion
3.76574 °/min
Orbital period
95.6 mins
BSTAR
-0.00023799
Loading maneuver chart data...
Computing Atmospheric mass density...
Loading historical data...
Loading historical data...
Loading historical data...
Loading historical data...
Loading historical data...
Loading historical data...
Loading historical data...

Documentation

Showing up to 5 results
|